Location: Agadir-Ikarkaouin
(31.1503°N, 9.0246°W)
Time: 04:09:27
(UTC+00:00)

SL-16 R/B - Pass Details

Date: 18 September 2020
Orbit: 842 x 848 km, 71.0° (Epoch: 23 October)

Event Time Altitude Azimuth Distance (km) Brightness Sun altitude
Rises 19:22:48 0° 329° (NNW) 3,406 6.0 -10.5°
Reaches altitude 10° 19:25:24 10° 321° (NW) 2,466 5.4 -11.1°
Maximum altitude 19:30:32 37° 256° (WSW) 1,295 3.8 -12.1°
Drops below altitude 10° 19:35:39 10° 191° (S) 2,451 4.6 -13.2°
Sets 19:38:15 0° 183° (S) 3,381 5.3 -13.8°
